Theta_e
314 314 314 314 314 314 314 314 318 325 326 325 326 325 324 324 324 323 322 320 319 315 313 312 309 308 306 305 305 304 304 303 304 303 303 303 303 303 304 305 306 307 306 306 306 306 307 307 307 307 307 307
315 315 314 315 315 314 313 313 316 320 320 319 320 320 319 319 320 321 319 316 314 312 311 309 306 305 304 304 304 304 303 303 303 303 303 303 303 304 305 307 306 306 306 306 306 306 306 306 307 307 307 307
315 315 315 315 315 314 313 312 313 315 316 315 316 316 318 318 319 318 316 313 311 311 309 306 304 304 304 304 304 303 303 303 303 303 303 303 304 305 306 306 306 306 306 306 306 306 307 307 307 307 307 307
316 315 315 315 316 315 313 312 312 313 314 314 314 315 316 316 315 314 313 312 310 309 307 304 304 304 304 304 304 303 303 303 303 303 302 303 304 306 306 306 306 306 306 306 306 306 306 306 307 307 307 307
318 316 315 315 315 316 315 313 312 312 313 313 313 313 313 313 312 311 311 310 309 308 306 304 304 304 304 304 304 303 303 303 303 303 303 304 305 306 306 305 305 305 305 306 306 306 306 306 306 306 307 307
320 319 316 315 315 316 316 314 313 312 312 313 312 312 312 311 311 310 310 309 309 308 305 304 304 304 304 304 304 303 303 303 303 303 303 304 305 305 305 305 305 305 305 306 306 306 306 306 306 306 306 306
319 321 319 316 316 315 316 316 314 313 313 312 312 312 312 312 311 311 310 309 309 307 305 305 304 304 304 304 304 303 303 303 303 303 303 304 305 305 305 305 305 305 306 306 306 306 306 306 306 306 306 306
318 320 320 318 317 316 316 316 315 315 314 313 312 313 312 312 312 311 310 309 309 307 305 305 304 304 304 304 304 303 303 303 303 303 304 304 305 305 305 305 305 306 306 306 306 306 306 306 305 306 305 306
317 318 320 321 319 317 317 316 315 315 315 314 313 314 312 313 312 310 310 309 308 307 304 305 305 305 305 304 304 303 303 303 303 303 303 304 305 305 304 304 305 306 306 306 306 306 306 306 305 305 305 305
316 316 318 320 320 319 318 316 316 315 315 314 314 315 314 316 316 311 310 309 308 306 304 305 305 305 305 305 304 303 303 303 303 303 303 304 304 304 304 304 305 305 305 306 306 306 306 305 305 305 305 305
316 316 316 317 319 319 316 315 315 315 315 314 314 314 314 318 317 311 310 309 308 306 304 305 305 305 306 305 304 303 303 303 303 302 303 303 304 304 304 304 304 305 305 305 305 305 305 305 305 305 304 304
316 316 315 316 317 316 315 315 315 315 315 314 314 314 314 317 315 311 310 309 308 306 304 304 305 305 305 305 305 303 303 303 302 302 303 303 304 304 304 303 304 305 305 305 305 305 305 305 305 304 304 304
316 316 316 316 316 315 315 315 315 315 315 315 314 314 315 315 313 312 310 309 308 307 304 304 305 305 305 306 305 303 303 303 302 302 303 303 303 304 304 303 304 304 304 304 305 305 305 304 305 304 304 304
315 316 316 316 316 315 315 315 315 315 315 315 315 316 316 314 312 312 311 309 309 307 305 304 304 305 305 306 305 303 303 303 302 302 303 303 303 304 303 303 303 304 304 304 304 304 304 304 304 304 304 304
315 315 316 316 316 315 315 315 315 315 315 315 315 316 316 314 313 312 311 310 309 307 305 304 304 305 305 306 306 304 303 302 302 302 302 302 303 303 303 303 303 303 304 303 304 304 304 304 304 304 304 304
315 315 315 315 316 316 316 315 316 315 316 316 315 315 315 314 313 312 312 311 309 308 306 304 304 304 304 305 306 305 303 302 302 302 302 302 302 303 303 303 303 303 303 303 303 303 303 303 304 304 304 304
314 314 315 315 315 316 316 316 316 316 316 316 315 315 315 314 314 312 312 311 310 309 307 305 304 304 304 304 306 305 303 303 302 302 302 301 302 302 303 303 302 302 303 303 303 303 303 303 303 303 303 303
314 314 314 315 315 315 316 316 316 316 316 316 315 315 314 314 314 313 312 311 311 309 308 307 305 304 304 304 305 305 304 303 302 302 301 301 301 302 302 302 302 302 302 303 302 303 303 303 303 303 303 303
313 314 314 314 314 315 315 315 315 316 316 316 315 315 314 314 314 314 313 311 311 310 309 308 306 304 303 303 304 304 304 303 302 301 301 301 300 301 302 302 302 302 302 302 302 302 302 303 303 302 303 302
312 313 313 313 314 314 315 315 315 316 316 317 316 316 315 314 314 315 314 313 311 311 309 308 307 305 304 303 303 304 304 303 302 301 301 300 300 300 301 302 302 301 301 302 302 302 302 302 302 302 302 302
312 312 312 313 313 314 315 315 315 316 316 317 317 316 316 315 315 315 315 314 313 311 310 308 307 306 305 303 303 303 303 303 302 301 301 300 300 300 300 301 301 301 301 301 301 302 302 302 301 302 302 302
311 311 311 312 312 313 314 314 315 315 316 316 317 317 317 316 316 315 315 315 314 312 310 309 307 306 306 305 303 302 302 302 301 301 301 300 300 300 300 301 301 301 301 301 301 301 301 301 301 301 301 301
310 310 311 311 311 312 312 313 314 314 315 317 317 317 317 317 316 316 316 316 315 314 311 309 308 306 306 306 303 302 302 302 301 301 301 300 300 299 299 300 300 300 300 301 301 301 301 301 301 301 301 301
310 310 310 310 311 311 311 312 312 313 315 316 317 316 317 317 317 317 317 317 317 316 313 310 308 307 306 306 304 302 301 301 301 301 301 300 300 299 299 299 300 300 300 300 300 300 300 300 300 300 300 301
309 309 309 310 310 310 311 311 311 312 313 314 315 315 316 317 317 318 318 318 318 317 316 313 310 308 306 305 304 302 301 301 301 301 300 300 300 299 299 299 299 300 300 300 300 300 300 300 300 300 300 300
309 308 308 308 309 309 310 310 310 311 312 312 314 314 315 316 317 317 318 318 318 318 317 316 313 310 308 305 304 303 301 300 300 300 300 300 299 299 299 298 299 300 300 300 300 300 299 299 299 299 299 299
307 307 307 307 308 308 308 309 309 310 311 311 312 312 312 313 314 315 316 317 318 318 318 317 316 314 311 308 304 303 302 300 300 300 300 299 299 299 298 298 298 299 299 300 299 299 299 299 298 298 299 299
307 307 307 307 307 307 307 308 308 308 309 309 309 309 310 310 311 312 313 314 315 316 317 317 317 316 315 312 307 303 302 301 300 300 300 299 299 298 298 298 298 299 299 299 299 299 298 299 299 298 299 299
307 307 307 306 306 306 306 306 306 307 307 307 307 308 308 308 309 309 310 311 312 313 315 316 317 317 316 315 312 307 303 301 301 300 299 299 299 299 298 298 298 299 299 299 299 299 299 299 299 299 300 300
307 306 306 306 306 306 305 306 307 307 306 306 307 307 307 307 307 308 308 308 309 310 312 313 315 316 316 316 315 311 306 302 301 300 300 299 299 299 298 298 298 298 299 299 298 299 299 300 300 300 301 300
307 306 306 306 305 305 305 305 306 306 305 305 305 305 306 306 306 306 306 306 307 307 308 309 311 313 314 315 315 314 310 305 301 301 300 299 299 299 298 297 298 298 298 298 298 299 299 299 300 300 301 300
Wind_Speed
23 22 22 21 20 20 19 19 21 21 21 20 20 21 21 21 21 21 21 21 22 18 13 12 12 11 10 10 9 8 8 7 6 5 5 5 5 4 3 3 2 1 1 2 2 3 4 4 4 4 4 4
25 24 23 22 22 21 20 20 22 22 22 21 21 21 21 21 21 22 22 21 19 15 12 12 11 11 10 10 9 9 9 8 7 7 7 6 5 4 4 3 2 2 2 3 4 5 5 5 6 5 5 5
26 26 25 24 24 23 22 22 22 22 22 21 21 21 21 21 21 22 22 20 16 13 12 11 11 11 11 10 10 10 9 9 9 9 8 7 6 6 5 4 3 3 4 5 5 6 6 6 6 6 6 6
27 27 27 26 25 24 24 23 23 23 22 22 21 21 21 21 21 20 20 19 16 13 12 12 12 12 11 11 10 10 10 10 10 10 9 8 7 7 6 5 4 4 5 5 6 6 6 6 6 6 6 6
26 27 28 28 27 26 26 25 25 24 24 24 23 23 22 22 21 20 20 18 16 15 13 13 13 13 13 12 12 11 11 11 11 10 10 9 8 7 7 6 5 5 5 5 5 5 5 5 5 5 5 6
26 26 27 28 29 28 28 27 26 26 26 25 25 25 24 23 22 21 20 19 18 16 16 15 15 15 14 14 13 13 13 13 12 11 10 9 9 8 8 7 6 6 5 5 5 5 5 5 5 5 5 5
28 26 27 29 30 30 30 29 29 28 28 28 28 27 26 25 24 23 22 21 20 19 18 17 17 17 16 16 15 15 15 14 14 13 12 11 10 10 9 8 7 6 5 5 4 4 4 4 4 5 5 5
31 29 27 28 30 31 31 32 31 30 30 30 30 29 28 27 27 25 24 24 22 20 20 19 19 19 18 18 17 17 17 16 16 14 13 13 12 11 10 9 7 6 6 5 4 4 4 4 4 4 5 5
33 31 28 26 29 30 31 33 33 33 32 32 31 30 30 28 28 27 25 25 23 21 22 22 22 21 21 20 19 19 19 18 17 15 15 14 14 13 11 10 8 7 6 5 4 4 4 4 4 4 4 5
34 33 30 28 28 29 32 34 35 34 33 34 33 31 30 27 27 29 28 26 23 23 24 25 24 23 22 22 21 21 21 20 18 17 16 16 15 14 13 11 10 9 7 6 5 4 3 3 3 3 4 4
35 35 34 32 30 31 35 37 37 36 34 35 35 34 32 27 27 30 29 27 25 25 26 26 25 24 23 23 23 22 22 21 19 18 18 17 16 15 14 12 11 10 8 6 5 4 3 3 3 3 3 4
37 37 36 35 34 35 36 37 38 38 37 36 37 37 34 31 31 31 29 29 27 26 27 28 27 25 25 24 24 23 24 23 20 20 20 19 18 16 15 14 13 11 9 7 5 4 3 3 3 3 3 4
37 38 39 38 38 37 36 37 38 39 39 38 38 38 35 34 34 32 31 31 29 28 29 29 29 28 27 26 24 24 25 24 22 22 21 20 19 18 17 15 14 12 10 8 6 5 4 4 3 3 4 4
36 38 40 40 40 38 38 38 38 39 40 39 39 38 36 34 34 34 33 32 31 30 31 31 31 30 29 27 26 26 26 25 24 24 22 21 20 19 18 17 15 13 11 9 7 6 5 4 4 4 4 5
35 37 39 40 40 40 40 40 40 41 41 41 41 39 36 35 35 35 35 34 33 32 32 33 33 32 31 29 27 27 27 26 26 25 23 22 22 21 20 18 16 14 12 10 9 8 6 6 5 5 5 6
35 37 38 39 40 40 41 41 41 42 42 42 42 41 39 36 36 36 36 36 35 34 34 34 35 34 32 30 29 28 28 28 28 27 25 24 23 23 22 20 18 16 14 12 11 9 8 7 6 6 6 6
34 36 37 38 39 40 41 42 42 42 43 43 43 43 41 38 37 37 38 38 37 36 35 35 36 35 34 32 30 30 30 30 29 28 27 25 25 24 23 22 19 17 16 14 13 11 9 8 7 7 7 7
32 34 36 38 39 40 41 41 42 41 42 44 44 43 42 39 38 38 38 39 39 38 37 36 36 36 36 34 32 32 32 31 31 30 28 27 26 26 25 23 21 19 18 16 15 13 11 10 9 9 8 8
30 31 34 38 39 40 41 42 42 42 42 44 44 44 42 41 40 40 39 40 40 39 38 38 37 37 37 36 35 33 33 32 32 31 30 28 28 28 27 25 23 21 20 18 17 15 13 12 11 10 9 9
29 31 33 36 38 40 42 43 43 42 43 44 45 45 44 42 42 42 40 41 41 40 40 40 38 37 37 38 37 35 34 33 33 33 32 30 30 29 28 27 24 23 22 20 18 17 15 13 12 11 10 10
29 31 32 34 36 39 41 43 43 43 43 44 45 45 45 44 43 43 42 42 42 41 41 41 40 38 38 38 37 36 35 35 35 35 34 32 31 30 29 28 26 25 24 22 20 18 16 15 14 13 12 11
26 28 30 31 34 37 40 41 42 43 43 45 46 46 47 47 45 44 43 43 43 42 42 42 41 40 39 38 38 38 38 36 37 37 35 34 33 31 31 30 28 27 26 24 22 20 18 16 15 14 13 13
22 24 26 29 31 34 37 40 41 43 43 43 45 47 47 48 47 45 45 45 44 43 43 43 43 42 41 40 38 40 40 39 39 39 37 35 34 32 32 31 29 29 28 25 23 21 20 18 17 16 15 14
18 20 22 25 28 31 34 37 39 41 41 39 41 46 47 48 48 47 46 46 45 44 43 44 44 44 43 41 40 41 41 41 41 40 38 37 35 34 33 33 32 32 30 26 24 23 21 20 19 18 17 16
15 16 18 20 23 26 29 32 35 37 38 37 38 42 45 47 48 48 47 47 46 44 44 44 45 45 45 43 42 41 41 41 42 41 39 38 37 36 35 35 35 34 31 28 26 25 23 22 21 20 18 18
13 13 15 17 19 22 24 27 30 32 35 36 36 39 42 45 47 48 48 47 46 45 44 45 45 46 47 45 43 42 41 41 42 42 41 40 39 37 37 37 37 36 33 31 29 27 24 22 22 21 20 20
11 12 13 15 17 19 21 24 27 28 31 33 34 37 38 40 42 44 46 46 46 45 45 45 45 47 48 46 44 44 42 42 43 43 42 42 41 39 39 38 38 37 35 33 30 27 23 22 21 20 22 23
8 11 12 14 15 16 18 20 23 24 26 28 30 32 33 34 35 38 40 42 43 44 44 45 45 47 48 47 46 45 44 44 45 45 44 44 43 42 41 41 41 39 37 35 33 29 22 19 17 16 19 23
5 8 10 11 12 13 14 16 19 20 22 23 24 26 28 29 31 32 34 35 38 39 41 43 45 46 47 47 46 47 46 46 45 45 46 46 45 45 44 44 43 41 39 38 37 33 25 17 15 17 17 18
6 6 7 8 10 11 12 14 15 17 19 20 21 22 23 24 26 27 28 29 31 33 35 38 42 45 47 47 46 47 47 47 47 47 47 47 47 47 46 46 45 43 41 40 39 37 34 28 23 21 19 16
10 10 9 8 8 8 9 11 11 13 17 18 19 21 21 22 23 23 23 24 26 27 29 31 36 40 43 45 46 47 48 49 49 49 48 48 49 48 47 47 47 46 44 42 41 40 39 38 31 25 23 21
Wind_Direction
235 235 237 237 236 234 233 228 218 212 213 216 220 225 230 236 242 249 255 259 264 267 258 249 245 238 233 230 232 232 234 234 229 217 195 187 188 194 201 208 208 217 260 296 305 309 303 300 293 285 275 265
234 234 235 235 235 234 233 229 221 217 220 223 226 231 236 240 245 251 257 261 258 255 248 242 240 238 233 227 225 222 220 216 208 199 192 194 201 208 211 214 224 252 285 299 301 303 300 300 297 293 288 276
233 233 233 233 233 233 233 231 226 223 224 228 231 234 239 243 248 250 255 259 252 240 235 234 235 238 234 229 225 220 212 201 195 192 193 199 204 209 211 215 233 259 278 289 292 292 291 290 290 290 289 285
233 233 231 232 233 232 232 231 230 228 228 231 234 237 241 245 249 251 253 255 249 237 230 228 230 233 231 228 224 217 208 198 195 194 197 201 204 205 208 217 233 255 271 280 283 283 282 280 279 278 278 279
235 235 232 231 233 232 232 232 231 230 231 233 235 237 240 245 248 250 251 250 246 236 230 226 228 230 228 226 221 213 207 202 200 201 203 204 205 205 211 223 238 257 270 277 277 276 274 272 269 267 266 265
234 235 235 232 231 233 232 232 231 230 232 234 236 237 239 242 244 246 246 244 240 234 228 224 227 230 228 225 219 211 208 205 204 206 207 208 209 211 218 230 244 260 269 274 274 272 268 265 262 258 256 254
234 234 236 234 231 232 232 232 232 231 232 233 236 237 237 239 241 242 242 240 236 231 227 223 225 228 227 225 217 211 210 207 207 208 209 209 212 216 223 234 246 256 262 266 266 266 262 257 254 249 248 247
236 235 236 235 231 230 231 232 232 232 233 233 234 235 236 237 238 239 238 237 234 228 225 221 222 225 225 223 216 211 210 209 209 210 210 211 214 218 226 235 243 249 251 253 256 259 257 252 247 243 242 242
238 237 234 233 231 229 230 233 233 231 232 234 234 233 234 234 236 238 236 235 233 226 223 220 220 223 223 221 216 211 211 212 212 211 212 214 217 220 226 233 239 242 242 244 248 253 253 250 246 243 241 241
241 240 238 234 232 230 231 234 235 233 231 233 233 232 233 230 231 235 235 235 232 226 224 222 221 223 223 220 217 213 213 215 212 212 214 216 218 221 226 232 236 236 236 238 241 246 247 249 245 244 244 244
244 243 242 239 237 235 235 235 235 236 233 233 233 233 232 227 229 234 234 234 232 226 225 225 224 225 225 222 219 215 216 217 214 214 216 218 220 223 227 231 234 233 234 235 238 245 249 256 257 257 256 256
247 247 246 243 241 240 239 238 237 237 237 235 234 235 232 228 231 234 234 234 232 228 226 227 226 226 226 224 221 216 218 219 215 216 218 219 221 224 228 232 234 233 235 238 242 251 256 266 271 273 273 270
249 248 248 245 244 243 241 241 240 239 239 237 236 236 233 231 233 233 233 233 232 230 228 229 228 228 228 227 222 217 219 220 217 219 220 221 222 225 229 232 234 234 236 240 245 253 261 270 276 284 286 285
248 248 249 248 247 247 246 244 243 241 241 240 238 237 237 235 233 233 233 233 233 231 230 230 230 230 230 229 225 220 221 221 220 222 223 222 224 226 229 233 234 236 238 242 247 253 261 270 281 290 296 298
246 248 249 250 250 250 250 247 245 244 243 242 239 240 243 240 234 233 234 233 233 232 231 231 231 231 231 230 227 223 223 223 222 224 224 224 226 227 230 233 234 236 238 242 246 251 258 267 280 291 298 301
247 247 248 250 251 251 251 250 248 246 244 244 242 244 247 243 236 234 234 234 234 233 232 232 232 233 232 231 230 226 225 225 225 225 225 225 226 227 229 232 233 235 238 241 244 248 255 264 276 286 292 296
250 248 249 249 250 251 251 251 251 249 247 247 246 247 248 245 240 236 234 235 234 233 233 232 233 234 233 232 231 228 227 227 227 227 227 226 227 229 230 231 232 233 236 239 242 245 252 259 267 275 281 286
253 251 251 251 251 251 251 252 253 253 251 250 250 250 250 248 244 239 236 235 235 234 234 234 234 234 234 233 232 230 229 229 229 228 228 227 228 229 230 231 231 232 235 237 240 243 249 255 260 267 272 277
254 255 254 254 253 253 253 253 254 255 253 252 253 253 253 252 248 244 240 237 237 236 235 236 235 234 234 233 232 231 230 230 230 230 229 227 228 229 230 231 231 232 234 236 239 243 248 253 257 262 267 272
256 257 256 256 255 253 253 253 254 255 254 254 254 255 256 255 252 249 244 241 240 238 236 237 236 235 234 234 233 232 231 231 231 231 230 229 229 230 231 232 231 232 234 236 239 242 246 250 253 257 261 267
253 255 256 256 256 254 254 254 255 255 255 255 255 256 257 257 255 253 250 246 244 241 238 238 238 237 236 236 235 233 232 230 231 232 231 230 230 231 232 234 233 234 235 237 238 240 243 245 248 252 258 263
251 253 254 254 255 255 256 256 256 255 255 255 255 255 256 257 257 256 254 250 247 244 241 240 240 239 238 237 236 234 232 230 231 232 231 230 231 231 233 234 234 235 236 237 237 239 240 242 244 249 255 259
254 253 252 252 253 253 255 256 256 256 255 254 254 254 255 256 257 256 255 253 251 247 244 242 241 241 240 239 237 235 233 230 230 231 231 231 231 231 232 234 234 234 236 236 236 238 239 240 243 248 250 254
261 260 258 257 256 255 255 256 256 257 256 254 255 255 254 256 257 256 255 254 253 250 247 245 243 243 242 240 238 237 235 233 232 233 233 232 231 231 231 232 232 233 235 234 234 236 237 239 242 245 247 251
271 270 269 268 267 266 264 263 262 260 260 259 259 258 257 256 257 257 256 255 254 252 249 247 246 245 244 242 240 239 238 236 236 236 235 233 232 231 231 231 232 234 233 231 231 232 233 237 241 243 245 249
287 282 277 276 275 274 271 270 268 264 265 264 261 261 261 259 258 258 258 258 256 255 252 250 248 247 246 244 242 242 241 239 238 237 236 234 233 232 232 233 235 236 232 228 229 231 232 234 238 241 243 246
302 290 282 277 274 274 273 272 271 270 270 270 268 268 269 267 266 265 263 262 260 257 255 253 250 250 249 247 244 243 243 241 239 238 237 236 235 233 231 231 234 236 233 229 228 228 229 233 236 240 242 242
307 295 290 285 278 277 277 276 278 279 278 278 278 278 279 278 276 274 271 269 266 263 260 257 253 251 251 250 247 245 244 243 242 240 239 237 236 234 231 230 232 234 233 230 228 225 222 228 233 237 244 243
321 310 308 304 299 296 291 287 287 287 286 286 287 285 285 284 282 280 278 275 273 269 265 261 258 255 253 252 249 247 245 244 245 243 241 240 237 236 234 234 235 234 232 230 230 227 219 217 220 225 238 240
20 357 338 329 324 317 308 303 299 294 293 293 293 293 293 292 290 288 287 284 279 275 271 266 262 259 256 254 251 248 246 245 245 244 243 241 239 238 237 236 237 236 235 230 228 229 226 226 228 227 229 226
45 34 15 2 351 338 324 315 305 297 299 301 300 302 303 302 300 298 296 293 288 283 278 272 267 262 259 257 253 251 249 246 246 245 244 242 241 240 238 236 237 238 238 232 228 230 231 233 234 234 233 228